Regional Weather Roundup
Issued by NWS Kansas City/Pleasant Hill, MO

Home | Current Version | Previous Version | Graphics & Text | Print | Product List | Glossary Off
Versions: 1 2 3 4 5 6 7 8 9 10 11 12 13 14 15 16 17 18 19 20 21 22 23 24 25 26 27

000
ASUS43 KEAX 190410
RWREAX

WEATHER ROUNDUP FOR EASTERN KANSAS AND NORTHWEST MISSOURI
NATIONAL WEATHER SERVICE KANSAS CITY/PLEASANT HILL MO
1100 PM CDT WED OCT 18 2017

KSZ040-057-103>105-MOZ028-029-037-043-190500-
...KANSAS CITY METROPOLITAN AREA...

CITY           SKY/WX    TMP DP  RH WIND       PRES   REMARKS
K.C. INTL      CLEAR     55  50  83 S9        30.04S
K.C. DOWNTOWN  CLEAR     61  51  70 SW7       30.04S
LEES SUMMIT    CLEAR     62  51  67 S13       30.07R
OLATHE - IXD   CLEAR     57  51  80 S8        30.07R
OLATHE - OJC   CLEAR     56  50  80 S6        30.06S
LAWRENCE       CLEAR     52  50  93 E3        30.05R

$$

MOZ001>008-011>017-020>025-030>033-038>040-044>046-053-054-190500-
...NORTHERN AND CENTRAL MISSOURI...

CITY           SKY/WX    TMP DP  RH WIND       PRES   REMARKS
ST. JOSEPH     CLEAR     48  47  96 CALM      30.04R
MOSBY          CLEAR     52  50  93 CALM      30.06R
WARRENSBURG    CLEAR     54  50  87 S5        30.07S
WHITEMAN AFB   CLEAR     56  50  80 S6        30.03S
CLINTON        CLEAR     54  50  87 S6        30.09S
SEDALIA        CLEAR     60  51  72 S7        30.08S
WARSAW         NOT AVBL
CHILLICOTHE      N/A     55  52  89 CALM      30.06S
KIRKSVILLE     CLEAR     53  50  89 S3        30.07R

$$

MOZ041-047>049-056>058-063>065-088>090-097-190500-
...EASTERN AND SOUTHERN MISSOURI...

CITY           SKY/WX    TMP DP  RH WIND       PRES   REMARKS
ST. LOUIS INTL CLEAR     62  48  60 VRB6      30.11R
SPIRIT OF STL  CLEAR     63  47  55 CALM      30.09R
COLUMBIA       CLEAR     58  45  62 S6        30.09R
JEFFERSON CITY CLEAR     55  46  71 CALM      30.09R
ROLLA          CLOUDY    61  48  62 S15       30.11S
OSAGE BEACH    CLEAR     60  47  61 S3        30.11R
SPRINGFIELD    PTCLDY    60  43  53 S12       30.10F
BRANSON        CLEAR     59  46  63 CALM      30.14R
JOPLIN         CLEAR     56  48  74 MISG      30.09S
WEST PLAINS    CLEAR     58  48  69 S6        30.16S

$$

IAZ060-094-KSZ022-034>040-054-083-096-NEZ052-066-093-190500-
...KANSAS...SOUTHEAST NEBRASKA AND IOWA...

CITY           SKY/WX    TMP DP  RH WIND       PRES   REMARKS
TOPEKA         CLEAR     53  50  89 CALM      30.03S
MANHATTAN      CLEAR     52  50  93 CALM      30.03S
EMPORIA        CLEAR     54  48  80 S7        30.05R
CHANUTE        CLOUDY    60  49  66 S9        30.07R
WICHITA        CLOUDY    58  50  75 S9        30.04S
OMAHA          CLEAR     52  46  80 NW7       30.04R
LINCOLN        CLEAR     53  44  71 NW3       30.06R
FALLS CITY     CLEAR     54  49  83 CALM      30.03R
LAMONI         CLEAR     57  48  72 SW5       30.05S
DES MOINES     CLOUDY    57  49  74 S3        30.03S

$$





USA.gov is the U.S. government's official web portal to all federal, state and local government web resources and services.